Simultaneous Nadir Overpasses (SNOs) Predictions

Prediction of SNOs between LANDSAT-8 and METOP-B Satellite Orbit:

Table of predicted SNOs for the next 14.0 days since TLE Epoch: 9/9/2023
Index Date (LANDSAT-8) Time (LANDSAT-8) Lat,Lon (LANDSAT-8) SZA (LANDSAT-8 ) Date (METOP-B) Time (METOP-B) Lat,Lon (METOP-B) SZA (METOP-B ) Distance(km) Time Diff (sec)
1 09/11/2023 05:21:35 -81.22, -38.87 101.15 09/11/2023 05:20:21 -81.22, -38.84 101.18 0.44 74
2 09/11/2023 06:11:01 81.22, 128.88 78.89 09/11/2023 06:11:01 81.23, 128.76 78.88 2.10 0
3 09/11/2023 07:00:27 -81.24, -63.17 101.06 09/11/2023 07:01:40 -81.24, -63.22 101.03 0.92 73
4 09/14/2023 00:55:51 -81.22, 27.53 100.06 09/14/2023 00:54:39 -81.22, 27.62 100.08 1.57 72
5 09/14/2023 01:45:16 81.24,-164.38 80.03 09/14/2023 01:45:18 81.24,-164.43 80.02 1.02 2
6 09/14/2023 02:34:11 -81.73, 15.96 98.22 09/14/2023 02:35:25 -81.36, 16.19 98.36 41.24 74
7 09/16/2023 20:30:07 -81.22, 94.09 98.94 09/16/2023 20:28:58 -81.22, 94.01 98.98 1.51 69
8 09/16/2023 21:19:32 81.25, -97.84 81.15 09/16/2023 21:19:36 81.25, -97.68 81.16 2.72 4
9 09/19/2023 16:04:23 -81.22, 160.45 97.84 09/19/2023 16:03:17 -81.22, 160.33 97.88 2.08 66
10 09/19/2023 16:53:48 81.24, -31.51 82.24 09/19/2023 16:53:55 81.24, -31.39 82.26 2.04 7
11 09/22/2023 11:38:37 -81.22,-133.02 96.71 09/22/2023 11:37:34 -81.22,-133.03 96.74 0.24 63



Historial Predications of SNOs between LANDSAT-8 and METOP-B
